,�O�C���x,�����t���O,�O�C���x,�����t���O,�󒲎����x,�����t���O,�󒲎����x,�����t���O,��󒲎����x,�����t���O,����,�����t���O
2004/7/1 0:00,24.5,0,87,0,27.1,0,53.8,0,29.5,0,24.1,0
2004/7/1 0:15,24.4,0,87,0,27,0,53,0,29.5,0,24.2,0
2004/7/1 0:30,24.2,0,87,0,26.9,0,52.7,0,29.5,0,24.2,0
2004/7/1 0:45,23.9,0,87,0,27.3,0,53.4,0,29.5,0,24.2,0
2004/7/1 1:00,24,0,88,0,27.4,0,54.1,0,29.4,0,24.3,0
2004/7/1 1:15,24,0,88,0,27.5,0,54.7,0,29.3,0,24.3,0
2004/7/1 1:30,23.8,0,88,0,27.6,0,55.3,0,29.3,0,24.4,0
2004/7/1 1:45,23.6,0,88,0,27.6,0,55.5,0,29.3,0,24.1,0
2004/7/1 2:00,23.5,0,89,0,27.7,0,55.9,0,29.2,0,24.1,0
2004/7/1 2:15,23.6,0,89,0,27.7,0,56.4,0,29.2,0,24.2,0
2004/7/1 2:30,23.6,0,89,0,27.8,0,56.8,0,29.2,0,24.2,0
2004/7/1 2:45,23.6,0,89,0,27.8,0,57.2,0,29.1,0,24.2,0
2004/7/1 3:00,23.6,0,89,0,27.9,0,57.4,0,29.1,0,24.3,0
2004/7/1 3:15,23.8,0,89,0,27.9,0,57.4,0,29.1,0,24.3,0
2004/7/1 3:30,23.8,0,88,0,27.9,0,57.5,0,29.1,0,24.3,0
2004/7/1 3:45,23.8,0,88,0,27.9,0,57.4,0,29.1,0,24.3,0
2004/7/1 4:00,24.1,0,89,0,27.9,0,57.9,0,29,0,24.3,0
2004/7/1 4:15,24,0,89,0,27.9,0,57.8,0,29,0,24.3,0
2004/7/1 4:30,24.1,0,87,0,27.9,0,57.9,0,28.9,0,24.4,0
2004/7/1 4:45,24.1,0,86,0,27.9,0,58,0,28.9,0,24.4,0
2004/7/1 5:00,24.1,0,87,0,27.9,0,58.2,0,28.9,0,24.4,0
2004/7/1 5:15,24.2,0,85,0,27.6,0,56.8,0,28.8,0,24.4,0
2004/7/1 5:30,24.2,0,86,0,27.4,0,55.6,0,28.8,0,24.4,0
2004/7/1 5:45,24.2,0,85,0,27.4,0,56.5,0,28.8,0,24.4,0
2004/7/1 6:00,24.3,0,84,0,27.4,0,57.3,0,28.7,0,24.5,0
2004/7/1 6:15,24.4,0,83,0,27.4,0,57.8,0,28.7,0,24.5,0
2004/7/1 6:30,24.5,0,81,0,27.3,0,57.4,0,28.7,0,24.5,0
2004/7/1 6:45,24.8,0,80,0,27.3,0,57.4,0,28.7,0,24.5,0
2004/7/1 7:00,24.9,0,80,0,27.2,0,57.2,0,28.6,0,24.4,0
2004/7/1 7:15,25.1,0,80,0,27.8,0,57,0,28.6,0,24.4,0
2004/7/1 7:30,25.4,0,79,0,27.7,0,58.3,0,28.6,0,24.4,0
2004/7/1 7:45,25.5,0,78,0,27.7,0,58.9,0,28.6,0,24.3,0
2004/7/1 8:00,25.9,0,78,0,27.9,0,59.4,0,28.6,0,24.3,0
2004/7/1 8:15,26.1,0,76,0,27.9,0,59.5,0,28.6,0,24.2,0
2004/7/1 8:30,26.1,0,74,0,28.1,0,59.7,0,28.6,0,24.2,0
2004/7/1 8:45,26.6,0,73,0,28.2,0,59.6,0,28.6,0,24.3,0
2004/7/1 9:00,27,0,71,0,28.3,0,59.4,0,28.6,0,24.3,0
2004/7/1 9:15,27.2,0,69,0,28.3,0,59.2,0,28.7,0,24.3,0
2004/7/1 9:30,27.8,0,67,0,28.4,0,59.1,0,28.7,0,24.3,0
2004/7/1 9:45,28.2,0,66,0,28.5,0,58.9,0,28.8,0,24.3,0
2004/7/1 10:00,28.7,0,65,0,28.6,0,58.7,0,28.9,0,24.4,0
2004/7/1 10:15,29.3,0,63,0,28.6,0,58.7,0,29,0,24.4,0
2004/7/1 10:30,29.7,0,62,0,28.7,0,58.5,0,29.1,0,24.4,0
2004/7/1 10:45,30.3,0,60,0,28.7,0,58.5,0,29.2,0,24.4,0
2004/7/1 11:00,30.7,0,58,0,28.8,0,58.4,0,29.3,0,24.5,0
2004/7/1 11:15,31.1,0,56,0,28.9,0,58.4,0,29.4,0,24.5,0
2004/7/1 11:30,31.3,0,56,0,28.9,0,58.3,0,29.5,0,24.5,0
2004/7/1 11:45,31.6,0,55,0,29,0,58.2,0,29.7,0,24.6,0
2004/7/1 12:00,32.1,0,56,0,29,0,58.2,0,29.8,0,24.6,0
2004/7/1 12:15,31.9,0,58,0,29.1,0,58.3,0,30,0,24.6,0
2004/7/1 12:30,32.1,0,56,0,29.2,0,58.2,0,30.1,0,24.7,0
2004/7/1 12:45,32.6,0,54,0,29.2,0,58.2,0,30.3,0,24.7,0
2004/7/1 13:00,32.7,0,56,0,29.3,0,58.2,0,30.5,0,24.7,0
2004/7/1 13:15,33,0,54,0,29.4,0,58.3,0,30.6,0,24.7,0
2004/7/1 13:30,33.4,0,53,0,29.5,0,58.3,0,30.8,0,24.8,0
2004/7/1 13:45,33.4,0,54,0,29.5,0,58.4,0,30.9,0,24.8,0
2004/7/1 14:00,33.6,0,53,0,29.6,0,58.4,0,31.1,0,24.9,0
2004/7/1 14:15,33.5,0,53,0,29.7,0,58.5,0,31.2,0,24.9,0
2004/7/1 14:30,33.7,0,53,0,29.8,0,58.8,0,31.4,0,24.9,0
2004/7/1 14:45,34.3,0,51,0,29.9,0,58.6,0,31.5,0,25,0
2004/7/1 15:00,33.9,0,53,0,29.9,0,58.6,0,31.5,0,25,0
2004/7/1 15:15,33.5,0,54,0,30,0,58.3,0,31.5,0,24.9,0
2004/7/1 15:30,33,0,56,0,30.1,0,57.8,0,31.4,0,24.9,0
2004/7/1 15:45,32.1,0,58,0,30.2,0,57.6,0,31.4,0,24,0
2004/7/1 16:00,32.1,0,59,0,30.2,0,57.1,0,31.4,0,24,0
2004/7/1 16:15,31.2,0,62,0,30.2,0,57,0,31.4,0,24.1,0
2004/7/1 16:30,30.9,0,63,0,30.2,0,56.7,0,31.4,0,24.3,0
2004/7/1 16:45,30.4,0,65,0,30.3,0,56.6,0,31.4,0,24.3,0
2004/7/1 17:00,29.7,0,67,0,30.3,0,56.6,0,31.4,0,24.4,0
2004/7/1 17:15,29.7,0,67,0,30.3,0,56.6,0,31.3,0,24.4,0
2004/7/1 17:30,29.7,0,67,0,30.2,0,56.3,0,31.3,0,24.4,0
2004/7/1 17:45,28.8,0,70,0,30.2,0,56.2,0,31.2,0,24.5,0
2004/7/1 18:00,28.5,0,72,0,30.2,0,55.9,0,31.2,0,24.5,0
2004/7/1 18:15,27.8,0,75,0,30.3,0,55.3,0,31.1,0,24.6,0
2004/7/1 18:30,27.2,0,77,0,30,0,51.3,0,31.1,0,24.6,0
2004/7/1 18:45,26.9,0,79,0,29.7,0,48.1,0,31,0,24.7,0
2004/7/1 19:00,26.7,0,79,0,29.5,0,46.9,0,30.9,0,24.7,0
2004/7/1 19:15,26.5,0,79,0,29.4,0,45.8,0,30.8,0,24.8,0
2004/7/1 19:30,26.5,0,79,0,29.1,0,47.6,0,30.6,0,24.8,0
2004/7/1 19:45,26.4,0,79,0,28.9,0,48.3,0,30.5,0,24.9,0
2004/7/1 20:00,26.4,0,80,0,28.8,0,48.9,0,30.3,0,24.9,0
2004/7/1 20:15,26.7,0,79,0,28.7,0,49.5,0,30.2,0,24.9,0
2004/7/1 20:30,26.8,0,78,0,28.7,0,50.3,0,30,0,24.3,0
2004/7/1 20:45,26.5,0,79,0,28.7,0,51.7,0,29.9,0,24.4,0
2004/7/1 21:00,26.3,0,79,0,28.5,0,51.8,0,29.7,0,24.5,0
2004/7/1 21:15,26.4,0,79,0,28.3,0,51.8,0,29.7,0,24.5,0
2004/7/1 21:30,26,0,80,0,28.4,0,51.1,0,29.5,0,24.5,0
2004/7/1 21:45,26,0,80,0,28.1,0,50.1,0,29.5,0,24.6,0
2004/7/1 22:00,25.8,0,81,0,27.8,0,49.1,0,29.5,0,24.7,0
2004/7/1 22:15,25.9,0,81,0,28.1,0,49,0,29.6,0,24.7,0
2004/7/1 22:30,26,0,81,0,28.5,0,50.8,0,29.6,0,24.7,0
2004/7/1 22:45,25.7,0,83,0,28.7,0,52.2,0,29.5,0,24.8,0
2004/7/1 23:00,25.3,0,85,0,28.9,0,53,0,29.6,0,24.8,0
2004/7/1 23:15,25.2,0,86,0,29,0,53.5,0,29.6,0,24.8,0
2004/7/1 23:30,25.1,0,86,0,29.1,0,53.9,0,29.6,0,24.9,0
2004/7/1 23:45,24.9,0,86,0,29.2,0,54.6,0,29.6,0,24.9,0
2004/7/2 0:00,24.8,0,87,0,29.2,0,56.4,0,29.6,0,24.9,0
2004/7/2 0:15,24.6,0,86,0,29.2,0,57,0,29.5,0,24.5,0
2004/7/2 0:30,24.5,0,87,0,29,0,55.8,0,29.4,0,24.5,0
2004/7/2 0:45,24.4,0,87,0,28.7,0,52.6,0,29.4,0,24.4,0
2004/7/2 0:59,24.1,0,86,0,28.9,0,55.1,0,29.4,0,24.4,0
2004/7/2 1:14,24.1,0,86,0,28.9,0,55.5,0,29.4,0,24.4,0
2004/7/2 1:29,24.1,0,85,0,28.9,0,56.1,0,29.3,0,24.5,0
2004/7/2 1:44,23.9,0,86,0,28.9,0,56.5,0,29.3,0,24.4,0
2004/7/2 1:59,23.8,0,86,0,28.9,0,56.8,0,29.3,0,24.4,0
2004/7/2 2:14,23.6,0,86,0,28.9,0,57,0,29.3,0,24.4,0
2004/7/2 2:29,23.6,0,87,0,28.9,0,57.2,0,29.3,0,24.5,0
2004/7/2 2:44,23.6,0,86,0,28.9,0,57.5,0,29.2,0,24.3,0
2004/7/2 2:59,23.5,0,86,0,28.8,0,57.6,0,29.2,0,24.3,0
2004/7/2 3:14,23.4,0,87,0,28.8,0,57.7,0,29.2,0,24.2,0
2004/7/2 3:29,23.4,0,88,0,28.8,0,57.7,0,29.1,0,24.2,0
2004/7/2 3:44,23.3,0,89,0,28.8,0,57.9,0,29.1,0,24.3,0
2004/7/2 3:59,23.2,0,90,0,28.8,0,58,0,29.1,0,24.3,0
2004/7/2 4:14,23.5,0,92,0,28.8,0,58.1,0,29,0,24.3,0
2004/7/2 4:29,23.9,0,92,0,28.8,0,58.2,0,29,0,24.5,0
2004/7/2 4:44,23.6,0,91,0,28.8,0,58.3,0,29,0,24.5,0
2004/7/2 4:59,23.5,0,90,0,28.7,0,58.4,0,28.9,0,24.6,0
2004/7/2 5:14,23.3,0,90,0,28.7,0,58.4,0,28.9,0,24.6,0
2004/7/2 5:29,23.2,0,89,0,28.7,0,58.5,0,28.9,0,24.6,0
2004/7/2 5:44,23.2,0,89,0,28.7,0,58.5,0,28.8,0,24.6,0
2004/7/2 5:59,23.4,0,89,0,28.7,0,58.5,0,28.8,0,24.7,0
2004/7/2 6:14,23.7,0,90,0,28.7,0,58.6,0,28.8,0,24.7,0
2004/7/2 6:29,24.1,0,88,0,28.7,0,58.5,0,28.7,0,24.7,0
2004/7/2 6:44,24.5,0,87,0,28.7,0,58.3,0,28.7,0,24.7,0
2004/7/2 6:59,25,0,86,0,28.7,0,58.4,0,28.7,0,24.7,0
2004/7/2 7:14,25.5,0,84,0,28.7,0,58.2,0,28.7,0,24.8,0
2004/7/2 7:29,26,0,82,0,28.8,0,58.7,0,28.7,0,24.8,0
2004/7/2 7:44,26.5,0,80,0,28.9,0,58.8,0,28.7,0,24.8,0
2004/7/2 7:59,27,0,78,0,28.9,0,58.7,0,28.7,0,24.8,0
2004/7/2 8:14,27.2,0,77,0,28.9,0,58.4,0,28.7,0,24.9,0
2004/7/2 8:29,27.2,0,76,0,28.9,0,58.2,0,28.7,0,24.7,0
2004/7/2 8:44,27.5,0,76,0,29.1,0,58,0,28.7,0,24.7,0
2004/7/2 8:59,28.1,0,73,0,29,0,52.8,0,28.7,0,24.8,0
2004/7/2 9:14,27.9,0,73,0,28.7,0,49.4,0,28.7,0,24.8,0
2004/7/2 9:29,28.5,0,70,0,28.6,0,47.8,0,28.7,0,24.8,0
2004/7/2 9:44,29.1,0,66,0,28.6,0,47.2,0,28.7,0,24.8,0
2004/7/2 9:59,29.4,0,64,0,28.6,0,47.6,0,28.7,0,24.9,0
2004/7/2 10:14,29.7,0,62,0,28.3,0,48.2,0,28.7,0,24.9,0
2004/7/2 10:29,29.8,0,61,0,28.1,0,48.4,0,28.7,0,24.9,0
2004/7/2 10:44,30.6,0,58,0,28.3,0,49.4,0,28.7,0,24.9,0
2004/7/2 10:59,31.3,0,59,0,28.5,0,51.1,0,28.7,0,25,0
2004/7/2 11:14,32,0,55,0,28.3,0,51,0,28.8,0,25,0
2004/7/2 11:29,32.3,0,54,0,28.1,0,49.1,0,28.9,0,25,0
2004/7/2 11:44,32.2,0,54,0,28,0,48.2,0,29,0,24.8,0
2004/7/2 11:59,33.3,0,51,0,27.9,0,47.8,0,29.2,0,24.8,0
2004/7/2 12:14,33.6,0,49,0,27.9,0,49.3,0,29.3,0,24.8,0
2004/7/2 12:29,33.8,0,50,0,27.9,0,50.4,0,29.5,0,24.9,0
2004/7/2 12:44,34.6,0,47,0,27.9,0,51,0,29.7,0,24.9,0
2004/7/2 12:59,33.6,0,49,0,28,0,53,0,29.8,0,24.1,0
2004/7/2 13:14,33.5,0,48,0,28,0,52.4,0,30,0,24.1,0
2004/7/2 13:29,33.4,0,49,0,28.6,0,52.1,0,30.2,0,24.1,0
2004/7/2 13:44,33.4,0,52,0,28.6,0,53.3,0,30.2,0,24.2,0
2004/7/2 13:59,33.4,0,50,0,28.8,0,54.2,0,30.3,0,24.2,0
2004/7/2 14:14,32.9,0,57,0,28.9,0,54.7,0,30.5,0,24.2,0
2004/7/2 14:29,34.3,0,53,0,29,0,55,0,30.7,0,24.2,0
2004/7/2 14:44,33.6,0,55,0,29.1,0,55.3,0,30.8,0,24.3,0
2004/7/2 14:59,35.4,0,49,0,29.3,0,55.5,0,31,0,24.3,0
2004/7/2 15:14,35.9,0,47,0,29.4,0,55.6,0,31.1,0,24.4,0
2004/7/2 15:29,36.1,0,45,0,29.5,0,55.7,0,31.3,0,24.4,0
2004/7/2 15:44,35.3,0,48,0,29.6,0,55.8,0,31.4,0,24.4,0
2004/7/2 15:59,35.7,0,46,0,29.7,0,55.9,0,31.5,0,24.5,0
2004/7/2 16:14,34.6,0,49,0,29.8,0,56.1,0,31.7,0,24.5,0
2004/7/2 16:29,34,0,51,0,29.8,0,56.2,0,31.8,0,24.6,0
2004/7/2 16:44,33.2,0,55,0,29.9,0,56.4,0,32,0,24.6,0
2004/7/2 16:59,33.3,0,56,0,29.9,0,56.4,0,32,0,24.6,0
2004/7/2 17:14,33.8,0,54,0,30,0,56.6,0,32.1,0,24.7,0
2004/7/2 17:29,34.1,0,54,0,30.1,0,56.8,0,32.2,0,24.7,0
2004/7/2 17:44,33.1,0,55,0,30.1,0,56.9,0,32.3,0,24.8,0
2004/7/2 17:59,32.8,0,58,0,30.2,0,56.9,0,32.4,0,24.8,0
2004/7/2 18:14,32.6,0,59,0,30.2,0,57,0,32.5,0,24.9,0
2004/7/2 18:29,31.8,0,61,0,30.2,0,57.1,0,32.6,0,24.9,0
2004/7/2 18:44,31.5,0,62,0,30.2,0,57.3,0,32.6,0,25,0
2004/7/2 18:59,31.2,0,64,0,30.2,0,57.5,0,32.7,0,25,0
2004/7/2 19:14,30.9,0,67,0,30.2,0,57.7,0,32.7,0,25.1,0
2004/7/2 19:29,30.7,0,69,0,29.8,0,55.8,0,32.7,0,25.1,0
2004/7/2 19:44,30.7,0,69,0,29.4,0,51.6,0,32.7,0,25.2,0
2004/7/2 19:59,30.5,0,70,0,29,0,48.5,0,32.7,0,25.2,0
2004/7/2 20:14,30.3,0,71,0,28.9,0,48.1,0,32.4,0,25.4,0
2004/7/2 20:29,30.3,0,70,0,28.9,0,50.5,0,32.2,0,25.5,0
2004/7/2 20:44,30.3,0,69,0,28.8,0,52.2,0,32.1,0,25.5,0
2004/7/2 20:59,30.1,0,71,0,28.7,0,50.6,0,31.9,0,25.5,0
2004/7/2 21:14,30,0,73,0,28.4,0,48.7,0,31.8,0,25.3,0
2004/7/2 21:29,29.9,0,74,0,28.2,0,47.4,0,31.9,0,25.3,0
2004/7/2 21:44,29.6,0,74,0,28.2,0,48.3,0,31.9,0,25.4,0
2004/7/2 21:59,29.4,0,75,0,28.3,0,49.1,0,31.9,0,25.4,0
2004/7/2 22:14,29.4,0,76,0,28.3,0,50.9,0,31.9,0,25.5,0
2004/7/2 22:29,29.1,0,77,0,28.2,0,50.2,0,31.8,0,25.2,0
2004/7/2 22:44,29.1,0,77,0,28.1,0,48.5,0,31.8,0,25.1,0
2004/7/2 22:59,29.1,0,78,0,28.1,0,47.5,0,31.8,0,25.2,0
2004/7/2 23:14,29.2,0,77,0,28,0,46.8,0,31.7,0,25.2,0
2004/7/2 23:29,29.2,0,77,0,28,0,46.2,0,31.7,0,25.2,0
2004/7/2 23:44,29.2,0,77,0,28,0,48.3,0,31.7,0,25.3,0
2004/7/2 23:59,29.2,0,77,0,28.2,0,50.2,0,31.7,0,25.3,0
2004/7/3 0:14,29.2,0,78,0,28.6,0,52.2,0,31.7,0,25.4,0
2004/7/3 0:29,29.1,0,78,0,28.8,0,52.7,0,31.6,0,25,0
2004/7/3 0:44,28.8,0,80,0,28.9,0,53.6,0,31.5,0,25,0
2004/7/3 0:59,28.8,0,84,0,29,0,54.5,0,31.4,0,25.1,0
2004/7/3 1:14,28.8,0,83,0,29.1,0,55.1,0,31.3,0,24.9,0
2004/7/3 1:29,28.6,0,85,0,29.2,0,55.5,0,31.2,0,24.9,0
2004/7/3 1:44,28.5,0,86,0,29.3,0,56.1,0,31.1,0,25,0
2004/7/3 1:59,28.2,0,87,0,29.3,0,56.4,0,31,0,25,0
2004/7/3 2:14,28.2,0,88,0,29.3,0,56.8,0,31,0,25,0
2004/7/3 2:29,28.2,0,88,0,29.4,0,57.3,0,31,0,25.1,0
2004/7/3 2:44,28.2,0,87,0,29.5,0,58,0,31,0,25.1,0
2004/7/3 2:59,28.1,0,88,0,29.5,0,58.9,0,31,0,25.2,0
2004/7/3 3:14,27.9,0,87,0,29.5,0,59.3,0,31,0,25.2,0
2004/7/3 3:29,27.6,0,87,0,29.6,0,59.4,0,30.9,0,25.3,0
2004/7/3 3:44,27.5,0,87,0,29.8,0,58.8,0,30.9,0,25.3,0
2004/7/3 3:59,27.4,0,88,0,29.9,0,58.3,0,30.9,0,25.3,0
2004/7/3 4:14,27.2,0,88,0,29.8,0,58.8,0,30.9,0,25.2,0
2004/7/3 4:29,27,0,89,0,29.7,0,58.9,0,30.9,0,25.3,0
2004/7/3 4:44,26.8,0,90,0,29.7,0,58.9,0,30.9,0,25.3,0
2004/7/3 4:59,26.8,0,90,0,29.7,0,58.9,0,30.9,0,25.4,0
2004/7/3 5:14,26.9,0,90,0,29.7,0,59,0,30.8,0,25.4,0
2004/7/3 5:29,27.1,0,89,0,29.7,0,59.3,0,30.7,0,25.4,0
2004/7/3 5:44,27.2,0,88,0,29.7,0,59.4,0,30.6,0,25.5,0
2004/7/3 5:59,27.4,0,87,0,29.7,0,59.5,0,30.5,0,25.5,0
2004/7/3 6:14,27.5,0,86,0,29.7,0,60,0,30.5,0,25.5,0
2004/7/3 6:29,27.8,0,85,0,29.8,0,60.1,0,30.5,0,25.6,0
2004/7/3 6:44,28.3,0,87,0,29.9,0,60.2,0,30.5,0,25.6,0
2004/7/3 6:59,28.8,0,84,0,29.9,0,59.9,0,30.5,0,25.6,0
2004/7/3 7:14,29.2,0,83,0,30,0,59.8,0,30.5,0,25.7,0
2004/7/3 7:29,29.5,0,80,0,30.1,0,59.6,0,30.6,0,25.7,0
2004/7/3 7:44,30.1,0,77,0,30.2,0,59.3,0,30.6,0,25.8,0
2004/7/3 7:59,29.8,0,74,0,30.2,0,58.8,0,30.7,0,25.8,0
2004/7/3 8:14,30.4,0,70,0,29.8,0,55.9,0,30.6,0,25.8,0
2004/7/3 8:29,31,0,66,0,29.4,0,51.8,0,30.6,0,25.9,0
2004/7/3 8:44,31.5,0,65,0,29.2,0,49.7,0,30.6,0,25.6,0
2004/7/3 8:59,31.6,0,63,0,29.1,0,49.2,0,30.6,0,25.6,0
2004/7/3 9:14,32,0,61,0,29.3,0,51,0,30.7,0,25.7,0
2004/7/3 9:29,31.8,0,62,0,29.2,0,49.4,0,30.7,0,25.2,0
2004/7/3 9:44,32.4,0,59,0,28.9,0,47.9,0,30.7,0,25.2,0
2004/7/3 9:59,33.2,0,59,0,28.8,0,47,0,30.8,0,25.3,0
2004/7/3 10:14,33.4,0,57,0,28.7,0,46.5,0,30.9,0,25.3,0
2004/7/3 10:29,32.8,0,62,0,28.8,0,48.2,0,31.1,0,25.3,0
2004/7/3 10:44,33.3,0,57,0,28.9,0,49.8,0,31.2,0,25.4,0
2004/7/3 10:59,33.2,0,58,0,28.9,0,50.1,0,31.3,0,25.4,0
2004/7/3 11:14,33.8,0,57,0,28.9,0,50.5,0,31.5,0,25.1,0
2004/7/3 11:29,34.3,0,54,0,28.9,0,50.6,0,31.6,0,25.1,0
2004/7/3 11:44,33.6,0,57,0,28.8,0,50.5,0,31.8,0,25.2,0
2004/7/3 11:59,32.8,0,63,0,28.8,0,50.6,0,31.9,0,25.2,0
2004/7/3 12:14,32.9,0,64,0,28.8,0,50.9,0,32,0,25.3,0
2004/7/3 12:29,32,0,69,0,28.8,0,50.6,0,32.1,0,25.3,0
2004/7/3 12:44,33.2,0,67,0,28.8,0,50.8,0,32.2,0,25.4,0
2004/7/3 12:59,33.3,0,64,0,28.8,0,50.9,0,32.3,0,25.4,0
2004/7/3 13:14,32.8,0,69,0,28.9,0,51.9,0,32.4,0,25.4,0
2004/7/3 13:29,33.8,0,63,0,28.9,0,52.5,0,32.5,0,25.5,0
2004/7/3 13:44,35.2,0,57,0,29,0,52.6,0,32.6,0,25.4,0
2004/7/3 13:59,34.5,0,59,0,29,0,52.7,0,32.7,0,25.5,0
2004/7/3 14:14,35.6,0,57,0,29,0,52.4,0,32.8,0,25.5,0
2004/7/3 14:29,35.5,0,56,0,28.9,0,51.7,0,32.9,0,25.5,0
2004/7/3 14:44,34.9,0,55,0,28.9,0,50.9,0,33,0,25.6,0
2004/7/3 14:59,34.7,0,58,0,29,0,50.7,0,33,0,25.6,0
2004/7/3 15:14,35.9,0,54,0,29.2,0,51.4,0,33,0,25.7,0
2004/7/3 15:29,34.7,0,58,0,29.5,0,52,0,33,0,25.7,0
2004/7/3 15:44,34.6,0,59,0,29.8,0,52.6,0,33,0,25.7,0
2004/7/3 15:59,33.8,0,62,0,30,0,53.1,0,33,0,25.7,0
2004/7/3 16:14,34.1,0,58,0,30.2,0,53.5,0,33,0,25.7,0
2004/7/3 16:29,34.3,0,59,0,30.4,0,53.7,0,33,0,25.8,0
2004/7/3 16:44,33.9,0,59,0,30.5,0,54.1,0,33,0,25.8,0
2004/7/3 16:59,34.5,0,56,0,30.6,0,54.3,0,33,0,25.9,0
2004/7/3 17:14,35.5,0,54,0,30.7,0,54.5,0,33.1,0,25.9,0
2004/7/3 17:29,35.6,0,52,0,30.9,0,54.5,0,33.1,0,26,0
2004/7/3 17:44,34.6,0,55,0,30.9,0,54.5,0,33.1,0,26,0
2004/7/3 17:59,34.5,0,56,0,31,0,54.6,0,33.1,0,26.1,0
2004/7/3 18:14,34.2,0,55,0,31,0,54.6,0,33.2,0,26.1,0
2004/7/3 18:29,33.5,0,57,0,31,0,54.6,0,33.2,0,26.1,0
2004/7/3 18:44,33.2,0,58,0,31.1,0,54.6,0,33.2,0,26.2,0
2004/7/3 18:59,32.9,0,59,0,30.5,0,51.2,0,33.1,0,26.3,0
2004/7/3 19:14,32.7,0,59,0,30.1,0,47.1,0,33.1,0,26.3,0
2004/7/3 19:29,32.4,0,60,0,29.7,0,45.8,0,33.1,0,26.3,0
2004/7/3 19:44,32.1,0,62,0,29.5,0,45.2,0,33,0,26.4,0
2004/7/3 19:59,31.6,0,63,0,29.5,0,46.6,0,33,0,26.5,0
2004/7/3 20:14,31.4,0,64,0,29.5,0,47.4,0,32.9,0,26.2,0
2004/7/3 20:29,31,0,68,0,29.5,0,48,0,32.8,0,26.3,0
2004/7/3 20:44,30.7,0,69,0,29.4,0,48.5,0,32.7,0,26.3,0
2004/7/3 20:59,30.5,0,70,0,29.2,0,48.5,0,32.6,0,26.3,0
2004/7/3 21:14,30.4,0,71,0,29.1,0,48.5,0,32.6,0,26,0
2004/7/3 21:29,30,0,73,0,29.2,0,49.9,0,32.5,0,26.1,0
2004/7/3 21:44,29.8,0,74,0,29.1,0,50.3,0,32.3,0,26.1,0
2004/7/3 21:59,29.6,0,74,0,28.9,0,49.8,0,32.3,0,26.2,0
2004/7/3 22:14,29.3,0,75,0,28.8,0,48.7,0,32.2,0,26.2,0
2004/7/3 22:29,29.1,0,74,0,28.8,0,49.3,0,32,0,26.3,0
2004/7/3 22:44,28.9,0,74,0,28.7,0,49.5,0,31.9,0,26.3,0
2004/7/3 22:59,28.8,0,74,0,28.6,0,49.7,0,31.8,0,25.5,0
2004/7/3 23:14,28.7,0,74,0,28.6,0,49.9,0,31.7,0,25.5,0
2004/7/3 23:29,28.6,0,74,0,28.5,0,49.7,0,31.6,0,25.5,0
2004/7/3 23:44,28.3,0,74,0,28.5,0,49.8,0,31.5,0,25.6,0
2004/7/3 23:59,28.2,0,74,0,28.9,0,51.6,0,31.4,0,25.6,0
2004/7/4 0:14,28,0,75,0,29.1,0,52.7,0,31.2,0,25.7,0
2004/7/4 0:29,27.9,0,77,0,29.2,0,52.9,0,31.1,0,25.4,0
2004/7/4 0:44,27.8,0,77,0,29.2,0,53,0,31.1,0,25.5,0
2004/7/4 0:59,27.8,0,78,0,29.3,0,53.2,0,31,0,25.5,0
2004/7/4 1:14,27.8,0,79,0,29.3,0,53.4,0,30.9,0,25.5,0
2004/7/4 1:29,28.3,0,77,0,29.4,0,53.7,0,30.8,0,25.6,0
2004/7/4 1:44,28.4,0,75,0,29.4,0,53.7,0,30.8,0,25.6,0
2004/7/4 1:59,28.3,0,75,0,29.4,0,53.5,0,30.7,0,25.7,0
2004/7/4 2:14,28.1,0,75,0,29.4,0,53.4,0,30.7,0,25.7,0
2004/7/4 2:29,27.9,0,76,0,29.5,0,53.9,0,30.6,0,25.8,0
2004/7/4 2:44,27.7,0,77,0,29.5,0,54.1,0,30.5,0,25.8,0
2004/7/4 2:59,27.6,0,79,0,29.5,0,54.5,0,30.5,0,25.8,0
2004/7/4 3:14,27.9,0,78,0,29.5,0,54.7,0,30.5,0,25.9,0
2004/7/4 3:29,28,0,77,0,29.6,0,55.1,0,30.5,0,25.9,0
2004/7/4 3:44,27.8,0,78,0,29.6,0,55.3,0,30.5,0,26,0
2004/7/4 3:59,27.7,0,77,0,29.6,0,55.6,0,30.5,0,26,0
2004/7/4 4:14,27.4,0,78,0,29.6,0,55.9,0,30.5,0,26,0
2004/7/4 4:29,27.2,0,80,0,29.6,0,56.2,0,30.5,0,26.1,0
2004/7/4 4:44,27.3,0,80,0,29.6,0,56.3,0,30.5,0,26.1,0
2004/7/4 4:59,27.4,0,80,0,29.6,0,56.6,0,30.5,0,26.1,0
2004/7/4 5:14,27.6,0,80,0,29.6,0,56.7,0,30.4,0,26.2,0
2004/7/4 5:29,27.6,0,81,0,29.6,0,56.8,0,30.4,0,26.2,0
2004/7/4 5:44,27.7,0,81,0,29.6,0,56.8,0,30.4,0,26.3,0
2004/7/4 5:59,27.7,0,81,0,29.7,0,56.9,0,30.3,0,26.3,0
2004/7/4 6:14,27.7,0,81,0,29.7,0,57.1,0,30.3,0,26.3,0
2004/7/4 6:29,27.7,0,82,0,29.7,0,57.1,0,30.3,0,26.4,0
2004/7/4 6:44,27.8,0,82,0,29.7,0,56.9,0,30.3,0,26.4,0
2004/7/4 6:59,28.1,0,79,0,29.7,0,56.7,0,30.2,0,26.4,0
2004/7/4 7:14,28.4,0,77,0,29.7,0,56.1,0,30.1,0,26.5,0
2004/7/4 7:29,28.7,0,74,0,29.7,0,56.2,0,30.1,0,26.5,0
2004/7/4 7:44,29.3,0,68,0,29.7,0,56,0,30,0,26.5,0
2004/7/4 7:59,29.6,0,66,0,29.7,0,55.9,0,30,0,26.6,0
2004/7/4 8:14,29.6,0,65,0,29.7,0,55.5,0,30,0,26.6,0
2004/7/4 8:29,29.7,0,66,0,29.7,0,55.3,0,29.9,0,26.6,0
2004/7/4 8:44,29.9,0,66,0,29.7,0,55.4,0,29.9,0,26.7,0
2004/7/4 8:59,30,0,66,0,29.8,0,55.7,0,29.9,0,26.7,0
2004/7/4 9:14,29.7,0,67,0,29.8,0,55.9,0,30,0,26.7,0
2004/7/4 9:29,29.9,0,67,0,29.8,0,55.9,0,30,0,26.7,0
2004/7/4 9:44,30.1,0,66,0,29.8,0,56.2,0,30,0,26.8,0
2004/7/4 9:59,30.1,0,66,0,29.9,0,56.3,0,30.1,0,26.8,0
2004/7/4 10:14,30.4,0,64,0,29.9,0,56.3,0,30.1,0,26.8,0
2004/7/4 10:29,30.4,0,63,0,29.9,0,56.3,0,30.1,0,26.8,0
2004/7/4 10:44,30.5,0,61,0,29.5,0,55,0,30.2,0,26.9,0
2004/7/4 10:59,30.3,0,63,0,29.3,0,52.5,0,30.2,0,26.9,0
2004/7/4 11:14,30,0,65,0,29.1,0,51.4,0,30.2,0,26.8,0
2004/7/4 11:29,29.9,0,66,0,28.9,0,50.5,0,30.2,0,26.3,0
2004/7/4 11:44,29.9,0,67,0,28.9,0,51.3,0,30.3,0,26.3,0
2004/7/4 11:59,29.8,0,68,0,28.8,0,51.5,0,30.3,0,26.4,0
2004/7/4 12:14,29.8,0,70,0,28.7,0,50.5,0,30.3,0,26.4,0
2004/7/4 12:29,29.9,0,69,0,28.6,0,49.9,0,30.3,0,26.4,0
2004/7/4 12:44,29.5,0,74,0,28.5,0,49.4,0,30.3,0,26.5,0
2004/7/4 12:59,29.5,0,74,0,28.3,0,48,0,30.4,0,26.5,0
2004/7/4 13:14,29.2,0,74,0,28.2,0,46.7,0,30.4,0,26.5,0
2004/7/4 13:29,29.4,0,73,0,28.2,0,47.7,0,30.4,0,26.5,0
2004/7/4 13:44,28.9,0,79,0,28.1,0,48.7,0,30.4,0,26.6,0
2004/7/4 13:59,27.2,0,89,0,28.1,0,48.5,0,30.4,0,26.1,0
2004/7/4 14:14,27.2,0,96,0,28.1,0,48.8,0,30.5,0,26.1,0
2004/7/4 14:29,28,0,88,0,28,0,48.9,0,30.5,0,26.2,0
2004/7/4 14:44,27.9,0,88,0,28,0,48.9,0,30.5,0,26.2,0
2004/7/4 14:59,27.7,0,89,0,28.1,0,51.2,0,30.5,0,26.2,0
2004/7/4 15:14,28.5,0,86,0,28.3,0,55,0,30.5,0,26.2,0
2004/7/4 15:29,28.8,0,84,0,28.4,0,58.4,0,30.3,0,25.4,0
2004/7/4 15:44,29.5,0,77,0,28.5,0,59.2,0,30.2,0,25.4,0
2004/7/4 15:59,29.4,0,76,0,28.5,0,59.2,0,30.3,0,25.4,0
2004/7/4 16:14,29.5,0,77,0,28.4,0,57.5,0,30.3,0,25.5,0
2004/7/4 16:29,27.8,0,87,0,28.3,0,55.5,0,30.3,0,25.5,0
2004/7/4 16:44,26.8,0,93,0,28.2,0,54.2,0,30.4,0,25.5,0
2004/7/4 16:59,27,0,94,0,28.2,0,54.6,0,30.5,0,25.6,0
2004/7/4 17:14,27.2,0,92,0,28.2,0,54.1,0,30.5,0,25.6,0
2004/7/4 17:29,27,0,92,0,28.3,0,52.6,0,30.5,0,25.6,0
2004/7/4 17:44,27.1,0,90,0,28.1,0,52.5,0,30.5,0,25.6,0
2004/7/4 17:59,27.3,0,89,0,28,0,52.1,0,30.5,0,25.7,0
2004/7/4 18:14,27.5,0,85,0,28,0,51.6,0,30.5,0,25.7,0
2004/7/4 18:29,27.2,0,86,0,27.9,0,51.7,0,30.5,0,25.7,0
2004/7/4 18:44,27.1,0,85,0,27.9,0,51.4,0,30.5,0,25.7,0
2004/7/4 18:59,27.1,0,84,0,27.9,0,51,0,30.5,0,25.6,0
2004/7/4 19:14,27,0,84,0,27.8,0,50.9,0,30.4,0,25.6,0
2004/7/4 19:29,26.9,0,83,0,27.8,0,51,0,30.4,0,25.7,0
2004/7/4 19:44,26.8,0,82,0,27.9,0,50.3,0,30.3,0,25.7,0
2004/7/4 19:59,26.7,0,82,0,27.9,0,50.3,0,30.3,0,25.7,0
2004/7/4 20:14,26.7,0,82,0,27.9,0,50.9,0,30.3,0,25.8,0
2004/7/4 20:29,26.6,0,82,0,27.9,0,51.3,0,30.2,0,25.8,0
2004/7/4 20:44,26.6,0,82,0,27.9,0,51.7,0,30.2,0,25.5,0
2004/7/4 20:59,26.6,0,81,0,27.8,0,52.3,0,30.2,0,25.5,0
2004/7/4 21:14,26.7,0,81,0,27.7,0,52.7,0,30.1,0,25.1,0
2004/7/4 21:29,26.7,0,82,0,27.6,0,53.5,0,30.1,0,25.1,0
2004/7/4 21:44,26.7,0,81,0,27.8,0,54,0,30,0,25.1,0
2004/7/4 21:59,26.6,0,83,0,27.7,0,53.3,0,30,0,25.1,0
2004/7/4 22:14,26,0,88,0,27.6,0,51.8,0,30,0,25.2,0
2004/7/4 22:29,25.8,0,91,0,27.6,0,57.1,0,30,0,25,0
2004/7/4 22:44,25.8,0,89,0,28,0,54.3,0,29.9,0,24.9,0
2004/7/4 22:59,25.8,0,89,0,27.3,0,52.5,0,29.9,0,24.9,0
2004/7/4 23:14,25.5,0,89,0,27.2,0,49.8,0,29.9,0,24.9,0
2004/7/4 23:29,25.4,0,87,0,27.3,0,51.2,0,29.9,0,24.9,0
2004/7/4 23:44,25.5,0,85,0,27.3,0,51.9,0,29.8,0,25,0
2004/7/4 23:59,25.7,0,84,0,27.5,0,51.2,0,29.8,0,25,0
2004/7/5 0:14,25.7,0,82,0,27.8,0,52.7,0,29.8,0,25.1,0
2004/7/5 0:29,25.8,0,81,0,28,0,53.8,0,29.7,0,25.1,0
2004/7/5 0:44,25.7,0,80,0,28,0,55.4,0,29.7,0,25,0
2004/7/5 0:59,25.7,0,80,0,27.9,0,54.2,0,29.6,0,25,0
2004/7/5 1:14,25.7,0,80,0,27.9,0,54.5,0,29.6,0,25.1,0
2004/7/5 1:29,25.5,0,81,0,28,0,55.5,0,29.6,0,25.1,0
2004/7/5 1:44,25.6,0,82,0,28,0,56,0,29.5,0,25,0
2004/7/5 1:59,25.7,0,81,0,28.1,0,56.3,0,29.5,0,25,0
2004/7/5 2:14,25.3,0,83,0,28.1,0,56.7,0,29.5,0,25,0
2004/7/5 2:29,25.1,0,85,0,28.2,0,57,0,29.5,0,25,0
2004/7/5 2:44,25.4,0,78,0,28.2,0,57,0,29.4,0,25.1,0
2004/7/5 2:59,25.5,0,76,0,28.3,0,57,0,29.4,0,25.1,0
2004/7/5 3:14,25.4,0,77,0,28.3,0,57.1,0,29.4,0,25.1,0
2004/7/5 3:29,25.2,0,81,0,28.3,0,57.3,0,29.3,0,25.1,0
2004/7/5 3:44,25,0,81,0,28.3,0,57.3,0,29.3,0,25.1,0
2004/7/5 3:59,25.1,0,81,0,28.3,0,57.3,0,29.3,0,25.2,0
2004/7/5 4:14,25,0,81,0,28.3,0,57.4,0,29.2,0,25.2,0
2004/7/5 4:29,25.1,0,80,0,28.3,0,57.5,0,29.2,0,25.2,0
2004/7/5 4:44,25.2,0,78,0,28.4,0,57.4,0,29.2,0,25.3,0
2004/7/5 4:59,25.1,0,79,0,28.4,0,57.5,0,29.1,0,25.3,0
2004/7/5 5:14,25,0,78,0,28.3,0,57.6,0,29.1,0,25.3,0
2004/7/5 5:29,25.1,0,77,0,28.3,0,57.6,0,29.1,0,25.3,0
2004/7/5 5:44,25.2,0,77,0,28.3,0,57.5,0,29.1,0,25.4,0
2004/7/5 5:59,25.2,0,78,0,28.4,0,57.5,0,29,0,25.4,0
2004/7/5 6:14,25.2,0,77,0,28.4,0,57.5,0,29,0,25.4,0
2004/7/5 6:29,25.3,0,77,0,28.4,0,57.6,0,29,0,25.4,0
2004/7/5 6:44,25.3,0,77,0,28.4,0,58.2,0,28.9,0,25.4,0
2004/7/5 6:59,25.5,0,76,0,28.5,0,58.3,0,28.9,0,25.5,0
2004/7/5 7:14,26,0,74,0,28.7,0,58.1,0,28.9,0,25.5,0
2004/7/5 7:29,26.3,0,71,0,28.7,0,58.2,0,28.9,0,25.3,0
2004/7/5 7:44,26.5,0,69,0,28.8,0,57.9,0,28.9,0,25.3,0
2004/7/5 7:59,26.8,0,68,0,28.9,0,57.8,0,28.9,0,25.3,0
2004/7/5 8:14,27,0,67,0,29,0,57.7,0,29,0,25.1,0
2004/7/5 8:29,27.5,0,66,0,29,0,57.4,0,29,0,25.1,0
2004/7/5 8:44,27.9,0,65,0,29,0,57.4,0,29.1,0,25.2,0
2004/7/5 8:59,27.9,0,64,0,29.1,0,57.3,0,29.1,0,25.2,0
2004/7/5 9:14,28.3,0,63,0,29.2,0,57.3,0,29.1,0,25.2,0
2004/7/5 9:29,28.7,0,63,0,29.2,0,57.2,0,29.2,0,25.2,0
2004/7/5 9:44,28.8,0,60,0,29.3,0,57,0,29.2,0,25.3,0
2004/7/5 9:59,29.5,0,60,0,29.3,0,56.9,0,29.3,0,25.3,0
2004/7/5 10:14,29.6,0,59,0,29.3,0,56.9,0,29.4,0,25.3,0
2004/7/5 10:29,29.8,0,57,0,29.4,0,56.8,0,29.4,0,25.4,0
2004/7/5 10:44,29.7,0,59,0,29.4,0,56.7,0,29.5,0,25.4,0
2004/7/5 10:59,30.4,0,55,0,29.4,0,56.6,0,29.6,0,25.4,0
2004/7/5 11:14,31.2,0,53,0,29.5,0,56.6,0,29.7,0,25.5,0
2004/7/5 11:29,30.9,0,53,0,29.5,0,56.4,0,29.8,0,25.5,0
2004/7/5 11:44,30.8,0,54,0,29.6,0,56.3,0,29.8,0,25.5,0
2004/7/5 11:59,31.1,0,52,0,29.6,0,56.2,0,30,0,25.5,0
2004/7/5 12:14,32.1,0,48,0,29.6,0,56.1,0,30.1,0,25.6,0
2004/7/5 12:29,32.8,0,48,0,29.7,0,56.1,0,30.2,0,25.6,0
2004/7/5 12:44,31.9,0,49,0,29.7,0,56,0,30.3,0,25.6,0